BEIDOU-2 IGSO-2

Last updated on Tue Oct 08 2024 00:02:38 GMT+0000 (Coordinated Universal Time)

1 37256U 10068A 24281.55957889 -.00000175 00000+0 00000+0 0 9993 2 37256 48.6762 279.4474 0039932 218.5561 187.9201 1.00267241 50601
UTC large
Height (km)
Speed (km/s)
/
Latitude / Longitude
Inclination (degrees)
Orbital Period (minutes)
Azimuth
Elevation
Range (km)
Doppler Factor

Next 0 passes for location: London (51.5072 / 0.1276)

Sorry there are no passes over London.